HVN35 VVNB-EDDM

Flight info

Callsign HVN35
Flight time N/A
Altitude 36000
Route HUVAN W21 BQ B214 AKSAG B465 CEA R460 LKN/N0498F380 M890 JAL R594 DPN A589 BUTOP M875 DI N644 LEMOD A909 NINOP/N0487F400 A909 RODAR M11 ERLEV T923 SUBUT T916 MATAL DCT TABAS DCT REBLO UM11 CRM UM688 EKSUK UL852 NEGEM DCT NEKUL DCT MIVSA DCT MOPUG DCT SUNIS DCT AMADI Q113 NAPSA
Aircraft A359/H-SDE2E3GHIJ3J4J5LM1ORWXY/LB1D1

Departure

Time 2026-05-09 01:36
Airport Noi Bai International Airport (VVNB)

Arrival

Time N/A
Airport Munich Airport (EDDM)
Time Latitude Longitude Altitude Speed Heading
2026-05-08 22:22 21.21890 105.79367 50 ft 0 kts 197°
2026-05-09 01:27 21.21897 105.79369 47 ft 4 kts 197°
2026-05-09 01:28 21.21923 105.79378 47 ft 4 kts 198°
2026-05-09 01:28 21.21949 105.79387 47 ft 4 kts 198°
2026-05-09 01:28 21.21970 105.79396 47 ft 4 kts 226°
2026-05-09 01:28 21.21977 105.79417 47 ft 4 kts 286°
2026-05-09 01:29 21.21970 105.79439 47 ft 0 kts 287°
2026-05-09 01:31 21.21972 105.79433 47 ft 6 kts 287°
2026-05-09 01:32 21.21994 105.79358 49 ft 14 kts 287°
2026-05-09 01:32 21.22023 105.79256 49 ft 15 kts 287°
2026-05-09 01:32 21.22048 105.79171 54 ft 12 kts 288°
2026-05-09 01:32 21.22079 105.79063 52 ft 17 kts 287°
2026-05-09 01:33 21.22117 105.78933 55 ft 22 kts 287°
2026-05-09 01:33 21.22163 105.78774 54 ft 21 kts 286°
2026-05-09 01:33 21.22206 105.78635 51 ft 13 kts 300°
2026-05-09 01:33 21.22254 105.78612 52 ft 9 kts 353°
2026-05-09 01:34 21.22336 105.78611 51 ft 15 kts
2026-05-09 01:34 21.22431 105.78634 53 ft 5 kts 15°
2026-05-09 01:34 21.22447 105.78657 48 ft 5 kts 72°
2026-05-09 01:34 21.22446 105.78710 54 ft 10 kts 103°
2026-05-09 01:35 21.22401 105.78872 55 ft 43 kts 107°
2026-05-09 01:35 21.22252 105.79389 49 ft 101 kts 107°
2026-05-09 01:35 21.21992 105.80286 52 ft 150 kts 107°
2026-05-09 01:35 21.21642 105.81456 359 ft 167 kts 109°
2026-05-09 01:36 21.21237 105.82649 757 ft 175 kts 110°
2026-05-09 01:36 21.20841 105.83905 1237 ft 178 kts 103°
2026-05-09 01:36 21.20545 105.85156 1905 ft 170 kts 101°
2026-05-09 01:36 21.20249 105.86393 2361 ft 172 kts 101°